Weather Roundup
Issued by NWS Chicago, IL

Home | Current Version | Previous Version | Text Only | Print | Product List | Glossary On
Versions: 1 2 3 4 5 6 7 8 9 10 11 12 13 14 15 16 17 18 19 20 21 22 23 24 25 26 27 28 29 30 31 32 33 34 35 36 37 38 39 40 41 42 43 44 45 46 47 48 49 50
000
NZUS59 KLOT 251210
HRRLOT

CHICAGO AREA WEATHER ROUNDUP
NATIONAL WEATHER SERVICE CHICAGO/ROMEOVILLE IL
700 AM CDT FRI JUL 25 2014

NOTE: "FAIR" INDICATES FEW OR NO CLOUDS BELOW 12,000 FEET WITH NO
SIGNIFICANT WEATHER AND/OR OBSTRUCTIONS TO VISIBILITY.

* THESE STATIONS ARE NOT UNDER NWS QUALITY CONTROL. THEY ALSO MAY NOT
  REPORT WEATHER SUCH AS PRECIPITATION OR FOG.

ILZ005-006-012>014-019>023-251300-
NORTHEAST ILLINOIS

CITY           SKY/WX    TMP DP  RH WIND       PRES   REMARKS
OHARE          CLOUDY    62  48  60 W9        30.09R
6HR MIN TEMP:  55; 6HR MAX TEMP:  62;

MIDWAY         CLOUDY    63  51  65 SW7       30.07R
6HR MIN TEMP:  60; 6HR MAX TEMP:  65;

AURORA         CLOUDY    55  52  89 CALM      30.10R
6HR MIN TEMP:  52; 6HR MAX TEMP:  57;

JOLIET*        CLOUDY    58  53  83 CALM      30.11R
WAUKEGAN       PTSUNNY   62  46  55 VRB5      30.08R
6HR MIN TEMP:  54; 6HR MAX TEMP:  62;

DUPAGE AIRPORT CLOUDY    58  53  84 W3        30.09R
6HR MIN TEMP:  53; 6HR MAX TEMP:  58;

WHEELING       CLOUDY    63  50  62 W6        30.10R
6HR MIN TEMP:  57; 6HR MAX TEMP:  63;

KANKAKEE*      CLOUDY    57  54  91 CALM      30.08S
MORRIS*        CLOUDY    58  55  87 W3        30.10R
LEWIS AIRPORT* CLOUDY    57  54  89 W5        30.10R
NORTHERLY IS   NOT AVBL
$$

WIZ051-052-058>065-066-070>072-251300-
SOUTHEAST WISCONSIN

CITY           SKY/WX    TMP DP  RH WIND       PRES   REMARKS
MILWAUKEE      PTSUNNY   62  47  57 SW10      30.07R
6HR MIN TEMP:  59; 6HR MAX TEMP:  62;

KENOSHA*       PTSUNNY   59  51  75 W7        30.09R
RACINE*        PTSUNNY   61  48  62 W9        30.09R
BURLINGTON     CLOUDY    55  52  89 CALM      30.07S
WAUKESHA       MOSUNNY   61  48  63 SW8       30.08R
WEST BEND      PTSUNNY   61  46  59 SW7       30.04F
$$

INZ001>003-010>013-019-020-251300-
NORTHWEST INDIANA

CITY           SKY/WX    TMP DP  RH WIND       PRES   REMARKS
GARY*          PTSUNNY   59  54  82 SW3       30.08R
MICHIGAN CITY* NOT AVBL
RENSSELAER*    NOT AVBL
VALPARAISO     PTSUNNY   55  51  86 SW3       30.08R
$$

LMZ740>746-251300-
SOUTHERN LAKE MICHIGAN

STATION/POSITION TIME  SKY/WX   TEMP WIND        PRES    VSBY
                                AIR  DIR/SP/G
                 (UTC)          (F)  (DEG/KT/KT) (MB)    (MI)
HARRISON CRIB    1200            66  220/  7/ 11   N/A
BURNHAM HARBOR   NOT AVBL
CALUMET HARBOR   1200            61  210/  4/  6 1017.0R
BURNS HARBOR     NOT AVBL
MICHIGAN CITY    1200            60  150/  8/ 11   N/A
$$

ABBREVIATIONS USED IN REMARKS
   TC - TEMPERATURE IN CELSIUS
  WCI - WIND CHILL INDEX
   HX - HEAT INDEX
  VSB - VISIBILITY
$$



USA.gov is the U.S. government's official web portal to all federal, state and local government web resources and services.